Location: Dover
(39.1580°N, 75.5250°W)
Time: 05:25:22
(UTC-04:00)

Daily predictions for brighter satellites

Satellite Brightness Start Highest point End
(mag) Time Altitude Azimuth Time Altitude Azimuth Time Altitude Azimuth
CZ-2C R/B 4.2 00:06:31 34° W 00:06:39 34° W 00:11:40 10° NNW
Cosmos 1980 3.7 00:02:20 10° NNW 00:07:49 73° NE 00:07:49 73° NE
Cosmos 2266 Rocket 4.4 00:02:28 10° N 00:08:37 49° E 00:08:58 49° E
H-2A R/B 3.6 00:10:21 29° NE 00:10:21 29° NE 00:13:11 10° N
Cosmos 2297 Rocket 2.3 00:14:58 68° NE 00:14:58 68° NE 00:19:59 10° NNE
CZ-4C R/B 3.1 00:07:54 10° NW 00:15:10 60° WSW 00:16:04 57° SW
Iridium 4 Rocket 3.7 00:16:21 82° NNW 00:16:21 82° NNW 00:22:01 10° N
Cosmos 2227 Rocket 2.2 00:18:00 78° N 00:18:00 78° N 00:23:17 10° NNE
Mayak 0.2 00:15:45 10° NNE 00:18:15 34° NNE 00:18:15 34° NNE
Cosmos 2237 Rocket 2.2 00:20:24 10° NNW 00:25:38 75° NW 00:25:38 75° NW
Terra 4.3 00:29:39 12° W 00:29:39 12° W 00:31:23 10° WNW
Cosmos 2082 3.8 00:31:03 75° NNE 00:31:03 75° NNE 00:36:17 10° NNE
Cosmos 923 Rocket 4.4 00:43:20 61° NNE 00:43:20 61° NNE 00:47:40 10° NNE
Cosmos 1680 Rocket 4.1 00:45:02 51° NE 00:45:02 51° NE 00:49:02 10° NNE
ISS -0.4 00:44:08 10° N 00:45:22 12° NNE 00:46:03 11° NNE
COSMOS 2455 3.2 00:47:33 56° W 00:48:05 58° WNW 00:54:04 10° NNE
ADEOS Rocket 2.8 00:44:23 10° NNE 00:49:25 74° N 00:49:25 74° N
ALOS 2 4.2 01:02:53 30° NW 01:02:53 30° NW 01:05:24 10° NNW
CZ-4B R/B 4.0 00:56:56 10° N 01:01:21 54° NW 01:01:21 54° NW
USA 229 DEB 3.6 01:10:02 67° ESE 01:10:02 67° ESE 01:16:38 10° NE
USA 229 3.6 01:10:09 66° ESE 01:10:09 66° ESE 01:16:44 10° NE
Cosmos 2219 Rocket 4.4 01:13:54 10° WNW 01:15:18 13° W 01:15:18 13° W
Meteor 1-24 Rocket 3.9 01:25:00 67° ENE 01:25:00 67° ENE 01:30:27 10° NNE
Meteor 2-5 Rocket 3.8 01:27:44 72° NW 01:27:44 72° NW 01:33:22 10° N
Cosmos 972 Rocket 4.3 01:31:15 66° NNW 01:31:15 66° NNW 01:35:46 10° NNE
Cosmos-2242 4.2 01:33:20 10° N 01:36:09 40° N 01:36:09 40° N
Cosmos 2263 Rocket 3.3 01:41:06 34° E 01:41:06 34° E 01:45:48 10° NE
SL-16 R/B 2.9 01:36:30 10° NW 01:40:44 42° WNW 01:40:44 42° WNW
DELTA 2 R/B (1) 4.1 01:44:06 50° E 01:44:06 50° E 01:48:11 10° E
H-2A R/B 4.4 01:47:27 15° WNW 01:47:27 15° WNW 01:48:34 10° NW
MOS 1 Rocket 3.6 01:46:26 10° NNE 01:51:37 80° NNE 01:51:37 80° NNE
SL-08 R/B 4.3 01:46:31 10° N 01:52:39 87° W 01:52:49 85° SSW
Cosmos 1346 Rocket 4.4 01:50:19 10° N 01:52:33 32° N 01:52:33 32° N
Mayak 1.5 01:54:17 10° NW 01:54:52 10° WNW 01:54:52 10° WNW
Cosmos 1553 Rocket 3.9 01:56:26 72° WSW 01:56:42 74° W 02:02:53 10° N
GEOS 3 Rocket 3.8 01:52:18 10° NE 01:57:07 62° E 01:57:07 62° E
Cosmos 2297 Rocket 4.4 01:56:44 13° WNW 01:59:02 16° NW 02:02:27 10° NNW
Cosmos 1726 4.0 02:00:00 10° N 02:02:02 30° NNE 02:02:02 30° NNE
PSLV R/B 4.4 02:08:24 10° N 02:11:48 47° NNW 02:11:48 47° NNW
Cosmos 1603 3.5 02:07:48 10° NNW 02:13:29 86° WSW 02:13:31 86° WSW
Cosmos 1452 Rocket 3.8 02:14:05 10° NNW 02:19:21 64° ENE 02:20:03 57° ESE
Meteor 2-1 Rocket 4.2 02:14:49 10° NNW 02:20:33 70° W 02:20:40 70° WSW
Cosmos 2056 Rocket 4.4 02:16:30 10° NNW 02:20:04 37° WNW 02:20:04 37° WNW
SL-14 R/B 4.4 02:23:36 41° NE 02:23:36 41° NE 02:26:23 10° NNE
Cosmos 2221 3.4 02:20:49 10° N 02:25:03 45° E 02:25:07 45° E
Cosmos 158 Rocket 3.9 02:26:02 85° WSW 02:26:09 86° WNW 02:31:35 10° NNE
Cosmos 1048 Rocket 4.4 02:26:19 51° ESE 02:26:33 52° ESE 02:31:38 10° NNE
Cosmos 883 Rocket 4.3 02:26:40 68° S 02:27:30 88° W 02:33:40 10° N
SL-16 R/B 3.3 02:29:37 23° SE 02:33:16 49° ENE 02:39:13 10° N
SL-24 R/B - RUBIN 2 4.3 02:34:50 50° ESE 02:34:57 50° ESE 02:39:44 10° NE
Meteor 1-21 Rocket 4.2 02:36:49 67° SSW 02:37:38 82° W 02:43:35 10° N
Cosmos 2315 Rocket 3.9 02:38:49 59° S 02:40:07 87° E 02:46:24 10° N
NOSS 3-1 (C) 3.8 02:40:24 42° W 02:41:45 50° NW 02:47:56 10° NNE
Cosmos 1626 3.2 02:43:16 41° ENE 02:43:16 41° ENE 02:46:20 10° NNE
Cosmos 1420 Rocket 3.8 02:43:38 10° NNW 02:48:52 81° WSW 02:49:20 72° SSW
CZ-2D R/B 2.5 02:44:53 10° NNE 02:49:59 54° E 02:51:12 44° SE
Aureole 1 Rocket 4.0 02:52:31 29° N 02:52:31 29° N 02:54:12 10° N
CZ-4B R/B 3.5 02:54:24 21° NW 02:54:24 21° NW 02:55:46 10° NNW
Genesis I 3.5 02:54:53 68° NNE 02:54:53 68° NNE 02:58:27 10° NNE
SL-08 ROCKET BODY 4.3 02:51:03 10° N 02:57:10 88° W 02:59:12 45° S
Cosmos 1340 3.7 02:54:50 10° NNW 02:57:20 37° NW 02:57:20 37° NW
SeaSat 1 3.3 02:55:13 13° SE 02:59:26 50° ENE 03:04:12 10° NNW
Cosmos 921 Rocket 4.2 02:55:43 10° N 02:59:46 39° ENE 03:02:07 21° SE
CBERS-1 3.9 02:54:43 10° NNE 02:59:52 89° ESE 03:00:48 61° SSW
NOSS 3-1 (A) 3.8 03:00:13 39° W 03:01:56 52° NW 03:08:12 10° NNE
AQUA 3.7 02:58:57 10° NNE 03:03:44 88° ESE 03:04:27 65° S
NOSS 2-3 (C) 3.9 03:04:00 55° SSE 03:04:34 60° ESE 03:09:38 10° NE
IRS-P3 Rocket 4.5 02:59:42 10° NNE 03:05:00 83° WNW 03:06:08 56° SSW
BREEZE-M R/B 4.3 03:08:03 30° SE 03:08:03 30° SE 03:11:28 10° SE
Cosmos 1844 Rocket 3.8 03:03:59 26° SSE 03:06:15 37° ESE 03:11:25 10° NE
IRS-1D 3.8 03:03:07 10° NNE 03:08:27 67° E 03:10:11 42° SSE
BREEZE-M DEB (TANK) 4.4 03:07:53 36° SSW 03:11:04 54° SSE 03:15:11 10° ENE
USA 267 3.2 03:05:07 10° NE 03:11:41 76° SE 03:14:16 40° SSW
Resurs 1-4 Rocket 2.0 03:06:38 10° NNE 03:11:58 90° E 03:13:30 49° SSW
ARIANE 5 R/B 2.9 03:09:38 10° NNE 03:14:38 55° E 03:16:36 34° SSE
NPP 3.8 03:11:21 10° N 03:16:39 59° WNW 03:18:01 45° WSW
IRS-P3 4.2 03:11:36 10° N 03:16:52 64° WNW 03:18:16 47° SW
Cosmos 1703 3.6 03:16:29 51° SE 03:17:09 60° E 03:21:03 10° NNE
H-2A R/B 2.5 03:12:49 10° N 03:17:17 70° WNW 03:17:51 61° WSW
Cosmos 1408 Rocket 4.0 03:17:53 40° SSE 03:19:08 56° E 03:23:24 10° NNE
Cosmos 494 Rocket 4.2 03:19:11 39° S 03:20:59 64° ESE 03:26:09 10° NNE
Cosmos 1709 Rocket 4.5 03:17:33 10° NNW 03:23:30 42° W 03:25:08 36° SW
Cosmos 2074 Rocket 4.0 03:17:40 10° N 03:23:55 79° E 03:28:12 21° SSE
Nadezhda 1 Rocket 4.4 03:20:24 24° SSE 03:24:13 61° E 03:30:24 10° NNE
Meteor 1-11 4.2 03:22:02 36° S 03:24:24 81° E 03:30:03 10° NNE
Okean 3 Rocket 3.7 03:23:57 51° WSW 03:24:29 55° W 03:28:53 10° N
Cosmos 2263 Rocket 3.3 03:22:47 27° W 03:24:36 33° WNW 03:29:43 10° N
UNK 3.8 03:24:13 52° SW 03:25:00 61° W 03:29:38 10° NNW
Cosmos 1943 3.7 03:20:13 10° NW 03:25:23 36° WSW 03:25:40 36° WSW
SL-08 R/B 3.4 03:26:04 46° SSW 03:27:12 59° W 03:32:05 10° NNW
Meteor 2-2 Rocket 4.2 03:21:35 10° N 03:27:24 87° E 03:30:53 25° S
Cosmos 2184 Rocket 4.1 03:21:49 10° N 03:28:14 83° E 03:32:55 20° S
DELTA 2 R/B (1) 3.4 03:24:53 18° W 03:29:04 78° SSW 03:34:41 10° ESE
UNKNOWN OBJECT B 4.1 03:26:30 10° NNE 03:29:55 33° E 03:31:30 23° SE
Helios 1A Rocket 4.0 03:27:16 10° NNE 03:31:08 39° E 03:33:00 25° SSE
Cosmos 1300 4.5 03:29:32 10° NW 03:31:28 20° WNW 03:31:28 20° WNW
Cosmos 2058 3.5 03:31:20 31° SSE 03:33:05 55° E 03:37:13 10° NNE
Cosmos 1607 4.0 03:26:56 10° NNW 03:33:23 82° ENE 03:39:40 10° SSE
ADEOS II 3.6 03:29:02 10° NE 03:33:40 31° E 03:38:15 10° SSE
CZ-2D R/B 4.3 03:34:11 10° NNE 03:38:32 50° E 03:40:59 24° SSE
Cosmos 1455 2.0 03:39:29 10° N 03:43:15 89° E 03:44:35 38° S
SWAS 4.4 03:38:57 10° NNW 03:43:16 88° ENE 03:47:08 13° SSE
H-II Stage 2 3.7 03:42:35 29° SSW 03:44:19 35° SSE 04:00:43 10° ESE
BREEZE-M DEB (TANK) 4.0 03:43:23 22° W 03:45:23 39° NNW 03:49:01 10° NE
Cosmos 1743 Rocket 4.0 03:46:53 22° SSE 03:49:29 59° E 03:53:44 10° NNE
OAO 2 Rocket 3.5 03:48:50 35° SW 03:50:31 51° S 03:55:18 10° E
Cosmos 2327 Rocket 4.4 03:45:29 10° N 03:51:35 76° W 03:56:30 16° S
Cosmos 1331 Rocket 3.9 03:50:28 10° NNW 03:55:38 81° WSW 04:00:47 10° SSE
Meteor 2-21 4.4 03:49:31 10° N 03:55:39 88° W 04:01:42 10° S
NOSS 2-3 (D) 4.3 03:54:06 29° WSW 03:56:10 50° NW 04:01:18 10° NNE
MOZ.5/SAFIR/RUBIN 5/SL-8 4.2 03:57:40 29° SSW 03:59:33 43° W 04:04:07 10° NNW
Cosmos 2151 2.9 03:58:26 27° S 04:00:46 85° W 04:05:06 10° N
Cosmos 2251 Rocket 3.6 04:00:54 22° SSW 04:04:29 83° ESE 04:09:53 10° NNE
ADEOS 3.5 04:02:22 10° NNE 04:07:37 86° WNW 04:11:29 18° SSW
Meteor 1-27 4.5 04:06:26 10° NNW 04:11:55 51° W 04:16:32 15° SSW
Meteor 2-14 Rocket 4.4 04:08:35 10° N 04:14:43 78° W 04:20:46 10° S
SAR-Lupe-2 4.0 04:13:54 27° SSW 04:15:22 41° W 04:18:47 10° NNW
Cosmos 220 Rocket 4.0 04:13:47 20° SSW 04:16:44 88° E 04:21:04 10° NNE
SL-16 R/B 3.6 04:14:42 20° SW 04:17:05 25° W 04:22:05 10° NW
Cosmos 1626 4.5 04:17:53 10° WNW 04:18:20 10° WNW 04:18:57 10° WNW
ATLAS 2AS CENTAUR R/B 3.2 04:18:14 15° SSW 04:24:54 78° ESE 04:33:03 10° NE
Cosmos 1500 Rocket 3.6 04:22:12 17° SSW 04:25:38 67° W 04:30:04 10° N
Cosmos 1328 Rocket 4.0 04:21:48 10° NNW 04:25:49 39° W 04:28:48 16° SSW
CZ-2D R/B 3.8 04:26:08 10° NNW 04:29:36 18° WNW 04:32:32 12° W
Cosmos 2228 Rocket 3.3 04:26:40 10° NNW 04:31:09 56° W 04:35:35 10° S
Cosmos 405 Rocket 2.6 04:27:50 10° N 04:31:42 85° W 04:35:27 10° S
SL-19 R/B 3.5 04:31:54 10° S 04:34:52 60° WSW 04:37:41 10° NNW
SeaSat 1 3.7 04:34:58 15° SW 04:37:08 20° WSW 04:40:45 10° WNW
Cosmos 2341 Rocket 4.0 04:39:47 10° NNW 04:45:57 65° W 04:52:09 10° S
In-Cosmos 22 Rocket 4.4 04:40:41 10° S 04:46:06 70° E 04:51:27 10° NNE
Cosmos 1515 Rocket 4.3 04:43:47 10° NNW 04:47:41 33° W 04:51:35 10° SSW
Cosmos 2098 Rocket 4.4 04:41:44 10° N 04:47:56 78° E 04:55:13 10° S
GP-B 3.2 04:43:50 10° N 04:48:12 57° W 04:52:32 10° SSW
Meteor 2-10 Rocket 3.5 04:44:29 10° NNW 04:49:26 57° W 04:54:19 10° S
Cosmos 1844 Rocket 3.8 04:45:39 12° WSW 04:50:09 31° WNW 04:55:09 10° N
Resurs 1-4 Rocket 4.2 04:49:12 10° NW 04:51:00 12° WNW 04:52:48 10° W
BREEZE M DEB (TANK) 3.7 04:47:06 10° W 04:52:16 28° NNW 04:54:39 10° NNE
ARIANE 5 R/B 4.2 04:50:01 10° NNW 04:53:16 17° WNW 04:56:30 10° WSW
USA 267 4.3 04:48:29 10° NE 04:54:20 36° NNW 05:00:09 10° W
ATLAS 5 CENTAUR R/B 4.5 04:37:19 10° W 04:54:49 21° SW 05:01:02 10° S
SL-8 Rocket 4.0 04:48:52 10° N 04:55:04 84° W 05:01:16 10° S
Cosmos 1441 Rocket 4.1 04:52:32 10° NNW 04:56:06 32° W 04:59:37 10° SSW
Cosmos 2278 Rocket 2.2 04:51:56 10° SSW 04:57:36 80° WNW 05:03:18 10° NNE
Okean O Rocket 3.3 04:54:26 10° NNE 04:58:24 33° E 05:02:22 10° SSE
PSLV R/B 3.5 04:54:11 10° NNE 04:58:27 87° WNW 05:02:46 10° SSW
Cosmos 2181 Rocket 4.3 04:54:25 10° SSW 05:00:44 57° W 05:07:05 10° N
Cosmos 1151 Rocket 4.3 05:00:35 10° NW 05:03:59 22° W 05:07:21 10° SW
Cosmos 2366 rocket 4.1 04:59:49 10° N 05:06:07 89° E 05:12:18 10° S
Cosmos 1892 2.9 05:04:26 10° S 05:08:18 79° E 05:12:10 10° N
Cosmos 1833 Rocket 4.0 05:02:58 10° NNW 05:08:23 47° ENE 05:13:46 10° SE
ATLAS 3B R/B 3.2 05:03:07 10° NNW 05:09:43 65° NE 05:16:13 10° SE
ADEOS II 3.0 05:08:43 10° N 05:13:18 31° WNW 05:17:52 10° SW
Cosmos 724 4.4 05:07:56 10° NNW 05:13:56 77° WSW 05:20:00 10° SSE
Sich 1 3.0 05:09:46 10° S 05:14:02 86° W 05:18:19 10° N
DELTA 2 R/B (1) 4.3 05:10:12 10° W 05:15:09 33° SSW 05:20:06 10° SSE
